Location: ??
(35.5052°N, 139.7262°E)
Time: 03:47:05
(UTC+00:00)

ADEOS II - Pass Details

Date: 20 June 2021
Orbit: 800 x 800 km, 98.6° (Epoch: 26 July)

Event Time Altitude Azimuth Distance (km) Brightness Sun altitude
Rises 18:17:09 0° 350° (N) 3,314 5.8 -12.3°
Reaches altitude 10° 18:20:41 10° 326° (NW) 2,379 4.6 -11.7°
Maximum altitude 18:23:10 14° 297° (WNW) 2,133 4.1 -11.3°
Drops below altitude 10° 18:25:39 10° 269° (W) 2,373 4.1 -10.9°
Enters shadow 18:26:08 - 264° (W) 2,471 4.1 -10.9°
